This demonstration page uses our WeatherBlox Daily Observations layout. Learn more.

Hourly Observations for July 16, 2015

Temp ( °F °C ) Dew Point ( °F °C ) Humidity (%) Winds ( mph kmh ) Pressure ( in mb ) Visibility ( mi km ) Precip ( " mm )
12:15 am 00:15 Partly Cloudy with Nearby Thunderstorms 73 23 71 21.7 92 92 E 6 9 29.74 1007 7 11.26538 0 0
12:35 am 00:35 Partly Cloudy with Nearby Thunderstorms 73 23 71 21.8 93 93 ESE 7 11 29.74 1007 7 11.26538 0 0
12:55 am 00:55 Mostly Cloudy 73 22.9 70 21.2 90 90 SE 7 11 29.74 1007 10 16.0934 0 0
1:15 am 01:15 Mostly Cloudy 73 22.6 69 20.6 89 89 Calm 29.71 1006 10 16.0934 0 0
1:35 am 01:35 Clear 72 22.2 69 20.5 90 90 ESE 6 9 29.74 1007 10 16.0934 0 0
1:55 am 01:55 Mostly Cloudy 72 22 66 18.9 83 83 S 8 13 29.77 1008 10 16.0934 0 0
2:15 am 02:15 Mostly Cloudy with Nearby Thunderstorms 71 21.6 66 18.7 84 84 SSW 7 11 29.77 1008 10 16.0934 0 0
2:35 am 02:35 Partly Cloudy 71 21.5 66 18.7 84 84 SW 7 11 29.77 1008 10 16.0934 0 0
2:55 am 02:55 Clear 71 21.5 66 18.7 84 84 SSW 13 20 29.77 1008 10 16.0934 0 0
3:15 am 03:15 Partly Cloudy 71 21.6 67 19.3 87 87 SW 12 19 29.74 1007 10 16.0934 0 0
3:35 am 03:35 Partly Cloudy with Light Drizzle 71 21.5 66 18.8 85 85 SW 13 20 29.74 1007 10 16.0934 0 0
3:55 am 03:55 Mostly Cloudy with Light Rain 70 21 65 18.5 86 86 SSW 9 15 29.77 1008 10 16.0934 0 0
4:15 am 04:15 Mostly Cloudy with Light Rain 69 20.6 65 18.6 88 88 SW 10 17 29.74 1007 10 16.0934 0.01 0.254
4:35 am 04:35 Clear 69 20.6 65 18.3 87 87 SW 9 15 29.74 1007 10 16.0934 0.01 0.254
4:55 am 04:55 Clear 69 20.7 65 18.1 85 85 WSW 7 11 29.74 1007 10 16.0934 0.01 0.254
5:15 am 05:15 Clear 68 20.2 65 18.2 88 88 WSW 6 9 29.74 1007 10 16.0934 0 0
5:35 am 05:35 Clear 69 20.5 65 18.5 88 88 W 6 9 29.74 1007 10 16.0934 0 0
5:55 am 05:55 Clear 68 20 65 18.2 89 89 Calm 29.74 1007 10 16.0934 0 0
6:15 am 06:15 Clear 68 20 65 18.3 90 90 W 3 6 29.74 1007 10 16.0934 0 0
6:35 am 06:35 Sunny 68 20 65 18.5 91 91 Calm 29.74 1007 10 16.0934 0 0
6:55 am 06:55 Sunny 67 19.4 65 18.2 93 93 Calm 29.74 1007 10 16.0934 0 0
7:15 am 07:15 Sunny 69 20.3 66 19 92 92 SSW 3 6 29.74 1007 7 11.26538 0 0
7:35 am 07:35 Partly Cloudy 69 20.7 66 19 90 90 SW 8 13 29.77 1008 10 16.0934 0 0
7:55 am 07:55 Cloudy 70 20.9 66 19.1 90 90 SW 8 13 29.77 1008 10 16.0934 0 0
8:15 am 08:15 Cloudy 71 21.5 68 19.9 91 91 WSW 7 11 29.74 1007 10 16.0934 0 0
8:35 am 08:35 Cloudy with Mist and Fog 72 22 69 20.4 91 91 SW 7 11 29.74 1007 5 8.0467 0 0
8:55 am 08:55 Mostly Cloudy with Mist and Fog 73 22.7 70 21 90 90 WSW 6 9 29.74 1007 5 8.0467 0 0
9:15 am 09:15 Partly Cloudy 74 23.5 69 20.6 84 84 WSW 8 13 29.74 1007 10 16.0934 0 0
9:35 am 09:35 Sunny 76 24.3 66 19 72 72 WSW 7 11 29.74 1007 10 16.0934 0 0
9:55 am 09:55 Sunny 76 24.6 66 19.1 72 72 WSW 9 15 29.74 1007 10 16.0934 0 0
10:15 am 10:15 Sunny 77 25.1 65 18.6 67 67 W 8 13 29.74 1007 10 16.0934 0 0
10:35 am 10:35 Sunny 77 25.2 65 18.6 67 67 W 10 17 29.74 1007 10 16.0934 0 0
10:55 am 10:55 Sunny 78 25.8 65 18.4 64 64 W 12 19 29.71 1006 10 16.0934 0 0
11:15 am 11:15 Sunny 80 26.5 66 19 63 63 W 9 15 29.71 1006 10 16.0934 0 0
11:35 am 11:35 Sunny 80 26.8 66 19 62 62 WNW 9 15 29.71 1006 10 16.0934 0 0
11:55 am 11:55 Sunny 82 27.5 66 18.8 59 59 WNW 14 22 29.71 1006 10 16.0934 0 0
12:15 pm 12:15 Sunny 82 27.8 65 18.4 57 57 WNW 10 17 29.71 1006 10 16.0934 0 0
12:35 pm 12:35 Sunny 82 28 65 18.4 56 56 NW 10 17 29.74 1007 10 16.0934 0 0
12:55 pm 12:55 Sunny 83 28.5 65 18.5 55 55 WNW 9 15 29.68 1005 10 16.0934 0 0
1:15 pm 13:15 Sunny 84 28.7 65 18.4 54 54 WNW 9 15 29.68 1005 10 16.0934 0 0
1:35 pm 13:35 Sunny 84 29.1 64 17.6 50 50 WNW 8 13 29.68 1005 10 16.0934 0 0
1:55 pm 13:55 Sunny 84 29.1 64 17.7 50 50 NW 8 13 29.68 1005 10 16.0934 0 0
2:15 pm 14:15 Sunny 85 29.5 65 18.2 51 51 WNW 9 15 29.68 1005 10 16.0934 0 0
2:35 pm 14:35 Sunny 85 29.7 62 16.7 46 46 WNW 7 11 29.68 1005 10 16.0934 0 0
2:55 pm 14:55 Sunny 86 30.1 62 16.9 45 45 NW 7 11 29.68 1005 10 16.0934 0 0
3:15 pm 15:15 Sunny 86 30.2 62 16.5 44 44 NW 6 9 29.68 1005 10 16.0934 0 0
3:35 pm 15:35 Sunny 87 30.4 59 15.1 39 39 WNW 7 11 29.68 1005 10 16.0934 0 0
3:55 pm 15:55 Sunny 87 30.3 60 15.6 41 41 NW 6 9 29.68 1005 10 16.0934 0 0
4:15 pm 16:15 Sunny 87 30.7 59 15.1 39 39 WNW 5 7 29.65 1004 10 16.0934 0 0
4:35 pm 16:35 Sunny 87 30.8 59 15.2 39 39 Calm 29.65 1004 10 16.0934 0 0
4:55 pm 16:55 Sunny 87 30.8 62 16.4 42 42 Calm 29.65 1004 10 16.0934 0 0
5:15 pm 17:15 Sunny 89 31.4 61 16.1 40 40 SSW 3 6 29.65 1004 10 16.0934 0 0
5:35 pm 17:35 Sunny 89 31.5 58 14.7 36 36 SW 5 7 29.65 1004 10 16.0934 0 0
5:55 pm 17:55 Sunny 89 31.5 60 15.4 38 38 W 8 13 29.65 1004 10 16.0934 0 0
6:15 pm 18:15 Sunny 89 31.5 58 14.6 36 36 W 6 9 29.65 1004 10 16.0934 0 0
6:35 pm 18:35 Sunny 89 31.5 60 15.5 38 38 SW 7 11 29.65 1004 10 16.0934 0 0
6:55 pm 18:55 Sunny 88 31.3 62 16.5 41 41 SSW 5 7 29.65 1004 10 16.0934 0 0
7:15 pm 19:15 Sunny 87 30.8 61 16.2 41 41 SW 6 9 29.65 1004 10 16.0934 0 0
7:35 pm 19:35 Sunny 87 30.4 63 17 45 45 SW 7 11 29.65 1004 10 16.0934 0 0
7:55 pm 19:55 Sunny 85 29.7 64 17.7 48 48 Calm 29.65 1004 10 16.0934 0 0
8:15 pm 20:15 Sunny 84 28.9 64 18 52 52 SW 3 6 29.65 1004 10 16.0934 0 0
8:35 pm 20:35 Sunny 81 27.3 66 18.7 59 59 Calm 29.68 1005 10 16.0934 0 0
8:55 pm 20:55 Sunny 80 26.7 65 18.6 61 61 Calm 29.68 1005 10 16.0934 0 0
9:15 pm 21:15 Clear 80 26.6 66 18.9 63 63 Calm 29.68 1005 10 16.0934 0 0
9:35 pm 21:35 Clear 78 25.3 67 19.3 69 69 S 3 6 29.68 1005 10 16.0934 0 0
9:55 pm 21:55 Clear 75 23.7 67 19.6 78 78 S 3 6 29.71 1006 10 16.0934 0 0
10:15 pm 22:15 Clear 75 24.1 66 18.8 72 72 Calm 29.71 1006 10 16.0934 0 0
10:35 pm 22:35 Clear 76 24.2 65 18.4 70 70 SSW 3 6 29.71 1006 10 16.0934 0 0
10:55 pm 22:55 Clear 75 24 64 18 69 69 Calm 29.71 1006 10 16.0934 0 0
11:15 pm 23:15 Clear 75 24.1 64 17.6 67 67 Calm 29.71 1006 10 16.0934 0 0
11:35 pm 23:35 Clear 72 22.4 64 17.8 75 75 Calm 29.71 1006 10 16.0934 0 0
11:55 pm 23:55 Clear 73 22.7 64 17.6 73 73 Calm 29.71 1006 10 16.0934 0 0

Powered by AerisWeather